Theta_e
318 318 318 318 318 318 319 319 319 319 318 318 318 318 318 318 317 316 316 315 315 315 314 315 315 315 315 315 315 316 316 317 317 317 317 317 317 317 316 316 315 314
313 314 314 314 315 315 315 315 315 315 315 316 316 316 315 315 315 314 314 314 314 314 314 314 314 314 314 314 314 314 314 315 315 315 315 315 315 315 315 315 315 314
311 311 311 311 312 312 312 311 311 312 312 313 313 313 312 312 312 312 312 312 312 313 313 313 313 313 313 313 313 313 313 313 313 313 313 313 313 313 314 314 314 314
310 310 310 310 310 310 310 310 310 310 310 311 311 311 310 310 311 311 311 311 311 311 311 311 312 311 311 311 311 311 311 311 311 311 312 312 312 312 312 312 312 312
309 309 309 309 309 309 309 309 309 309 309 309 309 309 309 309 309 309 309 309 309 310 310 310 310 310 310 310 310 310 310 310 310 310 310 310 310 310 310 310 311 311
308 308 308 309 309 309 309 308 308 309 308 308 308 308 308 308 308 308 308 308 308 308 308 308 308 308 309 309 309 309 309 309 309 309 309 309 309 309 309 309 309 309
308 308 308 308 308 308 308 308 308 308 307 307 307 307 307 307 307 307 307 307 307 307 306 306 306 306 307 307 307 307 307 307 308 307 307 307 307 307 307 307 307 307
307 307 307 307 307 307 307 307 307 306 306 306 306 306 306 306 306 306 305 306 306 305 305 305 305 305 305 305 305 305 305 305 305 305 305 305 305 305 305 304 304 304
306 306 306 306 306 306 306 305 305 304 304 305 305 304 305 304 304 304 304 304 304 304 304 304 304 303 303 304 303 303 303 303 303 303 303 303 303 303 303 303 302 302
306 306 305 305 304 303 303 303 302 302 301 301 301 301 301 301 301 301 301 300 300 300 300 301 301 301 301 301 301 301 301 301 301 301 301 301 301 301 301 301 301 301
304 303 302 301 300 299 299 299 298 298 298 298 298 298 298 298 297 297 297 297 297 297 297 297 297 297 298 298 298 298 299 299 299 300 300 300 300 300 300 300 300 300
299 298 298 297 297 297 297 296 296 296 296 296 296 296 296 296 296 296 296 296 296 296 296 296 296 296 296 296 296 296 297 298 298 298 298 298 298 298 298 299 299 299
297 296 296 296 296 296 295 296 296 295 295 295 295 295 295 295 295 295 295 295 295 295 295 295 295 295 295 295 295 295 296 296 296 297 297 297 297 297 297 298 298 298
296 295 295 295 295 295 295 295 294 294 294 294 294 294 294 294 294 294 294 294 294 294 294 294 294 294 294 294 294 294 294 295 295 296 296 296 296 296 296 296 296 297
295 295 294 294 294 294 294 294 294 294 294 294 294 294 294 293 293 293 293 293 293 293 293 293 293 293 293 293 293 293 294 294 294 294 294 295 295 295 295 295 295 295
294 294 294 293 294 294 293 293 293 293 293 293 293 293 293 293 293 293 293 292 292 292 292 292 292 292 292 292 292 293 293 293 293 293 293 293 294 294 294 294 295 295
293 293 293 293 293 293 293 293 293 293 293 292 292 292 292 292 291 291 291 291 291 291 291 291 291 291 291 291 291 291 292 292 292 292 293 293 293 294 294 294 295 295
293 293 293 293 293 293 292 292 292 291 291 291 291 291 291 290 290 290 290 290 290 290 290 290 290 290 290 290 290 290 290 291 291 291 292 292 293 293 294 294 294 295
293 293 292 292 292 291 291 290 290 290 290 290 290 290 290 290 290 290 290 290 289 289 289 289 290 290 289 289 289 289 289 290 290 290 291 291 292 292 293 293 293 294
292 291 291 290 290 290 290 289 289 289 289 289 289 289 289 289 289 289 289 289 289 289 289 289 289 289 289 289 289 289 289 289 289 290 290 290 291 291 292 292 292 293
290 289 289 289 289 289 289 289 289 289 289 289 289 289 289 289 289 289 289 289 289 289 289 289 289 289 289 289 289 289 289 289 289 289 290 290 290 291 291 292 292 292
288 288 288 288 288 288 289 289 288 288 288 288 288 288 288 288 288 288 288 288 288 288 288 288 289 289 289 289 289 289 289 289 289 289 289 290 290 290 290 291 291 292
286 287 287 288 288 287 287 287 287 287 287 287 288 288 288 288 288 288 288 288 288 288 288 288 288 288 288 289 289 289 288 289 289 289 289 289 289 290 290 290 291 291
285 286 286 286 286 286 286 287 287 287 287 288 288 288 288 288 288 288 288 288 288 288 288 288 288 288 288 288 288 288 288 288 288 288 289 289 289 289 290 290 290 291
284 284 285 286 286 286 287 287 288 288 288 288 288 288 288 288 288 288 288 288 288 288 288 288 288 288 288 288 288 288 288 288 288 288 288 289 289 289 289 289 290 290
283 284 285 286 286 287 287 287 287 287 288 288 288 287 287 287 287 287 287 287 287 287 287 287 287 287 287 287 287 287 287 287 287 288 288 288 288 288 289 289 289 289
Wind_Speed
8 7 7 6 5 5 5 5 5 5 6 6 7 7 6 7 7 6 7 8 8 8 8 8 8 9 10 11 11 13 14 16 18 20 21 24 26 27 29 30 30 31
8 7 7 6 5 6 6 8 8 7 6 6 7 7 7 8 9 8 6 7 8 8 8 9 9 9 10 11 11 12 13 13 14 17 19 22 24 24 26 27 28 29
6 6 6 6 6 7 7 7 7 7 6 6 7 8 9 9 9 8 6 6 7 8 8 9 9 10 10 11 11 12 13 14 14 16 18 20 22 24 25 26 26 27
5 4 4 4 4 4 4 3 3 3 3 4 6 7 8 8 7 6 6 7 7 7 7 8 8 9 9 10 11 12 13 14 15 15 16 19 20 21 23 24 25 26
4 4 3 2 2 1 1 0 0 1 2 3 4 5 6 7 7 6 6 6 6 6 6 7 8 8 8 9 10 11 12 13 13 13 15 17 18 19 20 21 23 25
6 5 4 3 2 2 1 1 1 1 2 3 4 5 5 6 7 6 6 6 6 6 6 7 7 8 8 9 10 11 12 13 13 13 15 17 18 19 19 20 22 23
8 7 6 6 5 4 3 3 3 3 3 3 3 3 4 5 6 6 6 6 6 6 7 7 8 8 8 9 10 11 12 13 14 15 16 18 19 21 22 22 23 24
10 10 9 8 8 7 6 5 5 5 5 5 5 5 5 6 6 7 8 8 8 8 8 8 9 9 9 9 11 12 13 14 15 16 17 18 20 22 24 24 24 26
13 12 11 11 11 10 9 9 9 9 9 9 9 9 8 8 8 9 9 9 9 9 9 10 10 11 11 11 11 12 14 15 15 16 17 18 20 22 24 24 24 26
15 14 13 13 13 13 12 12 12 13 13 13 12 12 12 11 11 11 11 12 12 12 12 12 13 13 13 14 14 14 15 16 17 17 18 18 20 22 23 24 24 26
17 16 15 15 15 14 14 14 14 14 14 14 14 13 13 13 13 13 13 14 14 14 14 15 15 16 16 17 17 17 18 18 19 20 20 21 22 23 24 25 25 27
18 17 16 16 15 14 14 14 14 14 14 14 14 13 14 14 14 14 14 15 15 15 16 16 17 18 18 19 19 20 20 20 21 22 23 24 25 26 26 27 27 28
17 16 16 15 14 14 14 13 14 14 14 14 14 14 14 14 14 15 15 15 16 16 16 17 18 19 20 20 20 21 22 22 23 24 25 27 28 28 29 29 30 30
16 15 14 14 13 13 13 13 13 14 14 14 14 14 14 15 15 16 16 16 17 17 17 18 19 19 20 20 21 22 23 24 25 25 27 28 29 30 31 31 32 32
14 14 14 13 13 13 13 14 14 14 14 14 14 14 14 15 15 16 16 17 18 18 19 19 20 21 21 21 22 23 24 25 26 27 28 30 31 32 33 33 33 34
14 13 13 13 13 13 13 13 13 14 14 14 14 14 15 15 16 17 18 19 20 20 21 22 23 24 24 23 23 23 25 26 27 28 29 30 32 33 34 35 34 35
13 13 13 13 13 13 13 14 14 14 14 15 16 16 17 19 20 21 22 22 23 23 24 25 26 26 26 26 26 25 26 27 28 30 30 30 31 32 34 36 35 35
13 13 13 13 13 13 13 14 14 16 17 17 18 19 20 22 23 23 24 24 24 24 25 26 27 28 28 28 29 28 28 29 29 30 31 31 31 32 34 36 36 36
13 13 13 13 13 14 14 15 17 18 19 19 20 21 23 24 24 25 26 26 25 26 27 27 28 30 30 30 31 31 30 30 31 32 32 33 33 33 35 36 37 37
13 13 13 13 14 15 16 17 18 19 19 20 21 23 24 25 26 26 26 25 26 27 28 29 29 30 31 31 31 33 32 31 32 33 33 35 35 35 36 37 38 37
13 12 13 14 14 16 17 18 19 20 20 21 22 24 24 25 25 25 25 26 27 27 29 30 30 30 32 33 32 32 33 32 31 33 34 35 36 37 37 38 39 37
12 12 14 15 16 17 18 19 20 20 21 22 23 25 25 25 25 25 26 27 28 29 30 32 33 32 32 35 35 33 33 34 33 33 34 36 38 39 39 39 39 37
11 13 15 16 17 18 19 19 20 20 22 24 25 27 28 27 28 28 28 28 31 32 33 35 38 37 35 36 38 36 34 35 36 35 36 37 39 41 41 40 39 37
10 12 15 16 16 17 19 20 21 22 24 26 27 29 30 30 31 32 32 32 34 37 38 38 42 43 40 37 39 38 36 35 36 36 37 38 40 41 42 41 39 38
10 12 15 16 16 18 20 22 23 24 25 27 28 30 31 32 33 35 37 38 38 39 41 41 42 45 45 41 40 40 39 37 36 35 36 38 39 41 43 43 42 41
12 13 15 17 18 20 21 22 24 25 26 27 29 30 31 32 33 35 37 39 40 40 41 41 41 43 45 44 42 41 40 38 36 35 36 37 38 39 41 43 43 43
Wind_Direction
193 197 204 207 215 226 234 239 245 253 258 260 263 265 269 268 267 269 271 271 273 275 273 270 267 265 265 265 263 261 260 260 262 264 263 262 262 262 261 259 257 256
201 206 211 209 213 226 237 244 246 250 254 258 262 263 265 263 262 266 272 275 273 275 279 278 276 274 270 269 268 268 268 267 264 263 264 264 264 265 265 264 263 260
196 207 215 214 217 228 241 251 254 255 255 260 263 264 264 263 262 262 266 272 270 269 272 274 277 278 275 272 270 270 271 271 270 267 267 267 266 266 267 267 267 264
180 187 195 204 213 225 241 257 271 275 271 273 275 276 278 276 274 271 270 273 271 270 271 270 272 275 273 272 272 274 274 272 274 274 272 271 270 270 270 270 269 268
156 153 153 165 178 187 187 183 296 313 294 291 290 290 291 289 287 284 280 281 277 276 278 274 273 274 275 277 276 276 278 277 277 276 274 273 273 272 272 272 272 271
135 131 135 136 124 123 119 98 56 6 341 326 315 306 304 301 299 298 294 291 287 287 288 285 283 282 279 278 277 276 276 276 275 273 273 273 272 272 271 270 271 272
124 120 117 115 106 102 93 75 56 42 28 9 355 342 338 333 327 327 323 319 317 312 307 302 296 291 284 279 277 276 275 274 273 271 272 274 275 274 273 272 272 273
110 106 103 100 96 91 83 74 66 60 56 52 45 34 23 16 5 357 355 353 350 341 333 325 315 306 298 290 284 282 282 282 281 279 279 279 279 280 279 279 277 276
100 96 93 90 87 83 80 75 70 66 64 61 57 51 44 38 31 22 18 15 9 5 357 348 340 333 324 315 308 302 299 297 295 291 288 286 286 287 288 286 282 280
96 92 90 88 85 83 81 77 72 69 66 62 58 55 51 47 41 34 30 25 20 15 8 2 355 348 343 338 331 324 317 313 310 304 298 294 292 293 294 291 287 284
96 93 91 88 86 83 79 74 69 64 59 55 51 48 44 40 35 29 24 20 15 10 5 0 355 350 347 343 337 332 325 319 316 312 307 303 299 298 298 296 292 289
97 93 89 86 81 76 72 67 61 55 49 45 40 36 32 27 23 19 15 11 6 3 359 354 351 348 344 342 337 332 326 319 315 312 309 308 305 303 302 299 296 294
93 89 85 79 74 70 64 58 53 47 42 37 31 27 24 18 14 10 6 3 359 357 354 351 349 346 342 340 337 331 325 319 315 312 310 309 307 305 304 301 298 296
89 85 80 74 68 64 56 50 45 39 33 29 24 20 16 12 8 3 360 358 356 353 352 349 348 346 342 339 335 331 326 319 315 312 309 307 306 305 303 302 299 296
84 79 73 66 59 53 46 39 34 29 24 20 16 13 10 7 3 360 356 354 353 351 349 347 346 345 342 338 334 330 324 319 314 311 308 305 304 303 302 301 299 296
78 72 65 58 49 43 37 31 26 22 17 14 12 9 7 4 1 359 357 353 351 348 346 344 343 343 341 337 333 329 323 318 313 309 307 304 302 300 299 298 296 294
71 64 58 51 44 38 33 27 22 17 13 11 9 5 3 1 358 357 355 351 347 344 341 340 339 339 338 334 331 330 324 318 313 308 304 301 298 297 296 296 295 293
66 59 54 49 43 36 30 24 18 13 10 7 5 2 359 357 355 352 350 348 343 340 336 334 334 335 335 333 330 329 326 321 314 309 304 300 296 295 294 294 294 294
62 56 51 45 39 32 25 19 15 10 6 3 0 358 354 352 351 348 346 345 340 336 333 330 331 334 333 332 330 327 326 322 315 310 305 300 297 295 294 293 292 292
59 52 45 38 32 25 19 14 10 6 3 359 356 354 351 349 347 344 342 341 337 334 331 328 329 332 332 330 328 326 324 320 314 309 304 300 298 296 294 293 292 292
53 47 39 31 24 18 14 10 6 3 0 357 353 351 349 346 344 341 338 337 336 332 329 326 326 329 330 329 326 325 323 318 312 307 303 300 299 296 294 293 292 291
48 38 30 23 17 14 11 8 5 2 359 356 351 349 348 344 342 341 338 336 335 333 328 326 326 328 329 329 328 326 323 319 313 307 303 301 299 297 295 293 292 291
41 30 22 18 15 12 10 7 5 1 358 355 351 348 348 345 342 340 338 335 334 333 330 326 326 328 329 329 328 326 323 318 313 309 304 301 300 300 297 295 294 292
32 22 18 17 15 12 9 6 3 0 357 354 351 348 346 344 342 338 336 334 333 332 331 328 327 328 328 328 327 325 323 318 313 309 304 301 302 302 300 298 296 295
21 16 15 17 14 11 8 4 1 358 355 351 349 346 343 341 339 336 333 332 331 331 329 327 326 326 326 326 326 325 323 318 313 309 304 302 302 302 301 300 298 297
17 15 16 16 12 8 5 2 358 353 350 348 345 342 340 337 335 334 331 329 329 328 327 326 325 324 325 325 324 323 321 319 315 309 304 303 303 301 299 299 298 298